Regional Weather Roundup
Issued by NWS

Home | Current Version | Previous Version | Text Only | Print | Product List | Glossary On
Versions: 1 2 3 4 5 6 7 8 9 10 11 12 13 14 15 16 17 18 19 20 21 22 23 24 25 26 27 28 29 30 31 32 33 34 35 36 37 38 39 40 41 42 43 44 45 46 47 48 49 50
000
ASUS43 KOAX 271902
RWRNE

WEATHER ROUNDUP FOR NEBRASKA
NATIONAL WEATHER SERVICE OMAHA NE
200 PM CDT MON JUL 27 2015

NOTES: SATELLITE DATA IS BEING USED TO AUGMENT CLOUD COVER ABOVE
       12000 FEET.
       "FAIR" INDICATES FEW OR NO CLOUDS BELOW 12,000 FEET WITH NO
       SIGNIFICANT WEATHER AND/OR OBSTRUCTIONS TO VISIBILITY.

  * THESE STATIONS DO NOT REPORT WEATHER SUCH AS RAIN...SNOW OR FOG.

NEZ001>004-019>022-054>056-272000-
NEBRASKA PANHANDLE

CITY           SKY/WX    TMP DP  RH WIND       PRES   REMARKS
SCOTTSBLUFF    SUNNY     88  67  49 E14       29.80F HX  91
ALLIANCE       SUNNY     86  65  49 S17       29.82F
CHADRON        SUNNY     92  65  40 SE15      29.74F HX  94
KIMBALL        SUNNY     88  58  36 S10       29.86F
SIDNEY         SUNNY     89  63  41 SE13      29.86F HX  90
$$

NEZ057>060-069>072-079>082-272000-
SOUTHWEST NEBRASKA

CITY           SKY/WX    TMP DP  RH WIND       PRES   REMARKS
NORTH PLATTE   MOSUNNY   88  69  53 S16       29.82F HX  92
IMPERIAL       MOSUNNY   89  67  47 S16       29.83F HX  92
MCCOOK         MOSUNNY   89  67  47 S20       29.84F HX  92
$$

NEZ005>010-023>029-035>040-094-272000-
NORTH CENTRAL NEBRASKA

CITY           SKY/WX    TMP DP  RH WIND       PRES   REMARKS
VALENTINE      SUNNY     88  64  44 SE17      29.79F
AINSWORTH      SUNNY     89  66  46 S14G24    29.82F HX  91
BROKEN BOW     MOSUNNY   89  70  53 S15G26    29.85F HX  94
O`NEILL        MOSUNNY   91  65  41 S16G23    29.83F HX  93
ORD            SUNNY     89  66  46 S16G24    29.83F HX  91
$$

NEZ041-046>049-061>064-073>077-083>087-272000-
SOUTH CENTRAL NEBRASKA

CITY           SKY/WX    TMP DP  RH WIND       PRES   REMARKS
GRAND ISLAND   MOSUNNY   85  70  60 SE14G22   29.88F
AURORA         MOSUNNY   84  70  63 SE16      29.89S
HASTINGS       SUNNY     88  72  58 SE15      29.88F HX  94
KEARNEY *      MOSUNNY   88  70  55 S15G21    29.87F HX  92
$$

NEZ011>018-030>034-042>045-272000-
NORTHEAST NEBRASKA

CITY           SKY/WX    TMP DP  RH WIND       PRES   REMARKS
NORFOLK        MOSUNNY   87  73  62 SE14      29.86F HX  94
ALBION         SUNNY     87  65  47 SE13      29.87S
BLAIR          CLOUDY    83  74  74 SE8       29.91F HX  90
COLUMBUS *     PTSUNNY   86  68  54 S13       29.87F
FREMONT        PTSUNNY   87  69  55 SE9       29.90F HX  90
TEKAMAH        PTSUNNY   82  73  74 SE12      29.89F
$$

NEZ050>053-065>068-078-088>093-272000-
SOUTHEAST NEBRASKA

CITY           SKY/WX    TMP DP  RH WIND       PRES   REMARKS
LINCOLN        PTSUNNY   88  69  53 S10       29.90F HX  92
OMAHA EPPLEY   CLOUDY    85  77  77 SE12      29.90S HX  95
BEATRICE       MOSUNNY   86  73  63 SE12      29.89F HX  93
FALLS CITY     CLOUDY    83  77  82 SE3       29.91S HX  92
NEBRASKA CITY  CLOUDY    81  72  73 SW3       29.92F
$$

NEZ044-045-051>053-067-272000-
OMAHA AREA

CITY           SKY/WX    TMP DP  RH WIND       PRES   REMARKS
OMAHA EPPLEY   CLOUDY    85  77  77 SE12      29.90S HX  95
BLAIR          CLOUDY    83  74  74 SE8       29.91F HX  90
FREMONT        PTSUNNY   87  69  55 SE9       29.90F HX  90
OFFUTT AFB     CLOUDY    84  74  71 SE8       29.89F HX  92
WAHOO          FAIR      84  74  71 SE9       29.89F HX  91
$$



USA.gov is the U.S. government's official web portal to all federal, state and local government web resources and services.